Weather History for Molokai, HI

Change the Weather History Date:

Monday, December 3, 2012

  Actual Average Record
Temperature  
Mean Temperature 77 °F -  
Max Temperature 82 °F 80 °F 86 °F (1984)
Min Temperature 72 °F 66 °F 61 °F (1959)
Cooling Degree Days 12    
Growing Degree Days 27 (Base 50)    
Moisture  
Dew Point 71 °F    
Average Humidity 87    
Maximum Humidity 94    
Minimum Humidity 65    
Precipitation  
Precipitation 0.06 in - - ()
Sea Level Pressure  
Sea Level Pressure 29.98 in    
Wind  
Wind Speed 10 mph (SSE)    
Max Wind Speed 16 mph    
Max Gust Speed -    
Visibility 8 miles    
Events Rain    
Averages and records for this station are not official NWS values.
T = Trace of Precipitation, MM = Missing Value Source: NWS Daily Summary

Daily Weather History Graph

Daily Weather History Graph

Search for Another Location

Airport:

Trip Planner

Search our weather history database for the weather conditions in past years. The results will help you decide how hot, cold, wet, or windy it might be!

Date:

Astronomy

Dec. 03, 2012 Rise Set
Actual Time 6:50 AM HST 5:46 PM HST
Civil Twilight 6:26 AM HST 6:10 PM HST
Nautical Twilight 5:59 AM HST 6:37 PM HST
Astronomical Twilight 5:32 AM HST 7:04 PM HST
Moon 10:22 PM HST (12/3) 10:38 AM HST (12/3)
Length of Visible Light 11h 43m
Length of Day
10h 55m
Waning Gibbous, 76% of the Moon is Illuminated
Dec 3
Waning Gibbous
Dec 6
Last Quarter
Dec 12
New
Dec 19
First Quarter
Dec 28
Full

Hourly Weather History & Observations

Time (HST) Temp. Heat Index Dew Point Humidity Pressure Visibility Wind Dir Wind Speed Gust Speed Precip Events Conditions
12:30 AM 73.4 °F - 69.8 °F 88% 29.99 in 10.0 mi SSE 11.5 mph - N/A   Mostly Cloudy
12:40 AM 73.4 °F - 69.8 °F 88% 29.99 in 10.0 mi SSE 10.4 mph - N/A   Scattered Clouds
12:54 AM 73.9 °F - 69.1 °F 85% 29.99 in 10.0 mi SSE 11.5 mph - N/A   Partly Cloudy
1:40 AM 75.2 °F - 69.8 °F 83% 29.98 in 10.0 mi SSE 10.4 mph - N/A   Mostly Cloudy
1:49 AM 75.2 °F - 69.8 °F 83% 29.97 in 10.0 mi SE 11.5 mph - N/A   Mostly Cloudy
1:54 AM 75.0 °F - 70.0 °F 84% 29.98 in 10.0 mi SSE 9.2 mph - N/A   Overcast
2:02 AM 75.2 °F - 69.8 °F 83% 29.97 in 10.0 mi SSE 10.4 mph - N/A   Overcast
2:51 AM 75.2 °F - 71.6 °F 89% 29.96 in 10.0 mi SSE 9.2 mph - N/A   Overcast
2:54 AM 75.0 °F - 71.1 °F 87% 29.97 in 10.0 mi SE 9.2 mph - N/A   Overcast
3:11 AM 75.2 °F - 71.6 °F 89% 29.95 in 10.0 mi SE 10.4 mph - N/A   Overcast
3:21 AM 75.2 °F - 71.6 °F 89% 29.95 in 10.0 mi SE 11.5 mph - N/A   Overcast
3:39 AM 75.2 °F - 71.6 °F 89% 29.95 in 10.0 mi SE 9.2 mph - N/A   Overcast
3:54 AM 75.0 °F - 71.1 °F 87% 29.95 in 10.0 mi SE 9.2 mph - N/A   Overcast
4:23 AM 75.2 °F - 71.6 °F 89% 29.95 in 9.0 mi SSE 10.4 mph - N/A   Overcast
4:54 AM 75.0 °F - 72.0 °F 90% 29.95 in 9.0 mi SSE 10.4 mph - N/A   Overcast
5:04 AM 75.2 °F - 71.6 °F 89% 29.94 in 9.0 mi SSE 8.1 mph - N/A   Overcast
5:15 AM 75.2 °F - 71.6 °F 89% 29.94 in 9.0 mi SSE 11.5 mph - N/A   Overcast
5:40 AM 75.2 °F - 71.6 °F 89% 29.94 in 8.0 mi SSE 10.4 mph - N/A   Overcast
5:44 AM 75.2 °F - 71.6 °F 89% 29.94 in 8.0 mi SSE 8.1 mph - N/A   Overcast
5:54 AM 75.0 °F - 72.0 °F 90% 29.95 in 6.0 mi SSE 10.4 mph - N/A   Scattered Clouds
6:07 AM 75.2 °F - 71.6 °F 89% 29.94 in 6.0 mi South 11.5 mph - N/A   Overcast
6:09 AM 75.2 °F - 71.6 °F 89% 29.95 in 6.0 mi SSE 10.4 mph - N/A   Mostly Cloudy
6:25 AM 75.2 °F - 71.6 °F 89% 29.95 in 3.0 mi SSE 11.5 mph - N/A   Mostly Cloudy
6:41 AM 75.2 °F - 71.6 °F 89% 29.95 in 3.0 mi SSE 10.4 mph - N/A   Haze
6:52 AM 75.2 °F - 71.6 °F 89% 29.96 in 3.0 mi SSE 9.2 mph - N/A   Haze
6:54 AM 75.0 °F - 72.0 °F 90% 29.97 in 3.0 mi SSE 8.1 mph - N/A   Haze
6:59 AM 75.2 °F - 71.6 °F 89% 29.96 in 3.0 mi SSE 11.5 mph - N/A   Haze
7:54 AM 75.9 °F - 72.0 °F 87% 29.99 in 4.0 mi SSE 10.4 mph - N/A   Haze
8:40 AM 77.0 °F - 71.6 °F 83% 29.99 in 4.0 mi SSE 10.4 mph - N/A   Haze
8:54 AM 75.9 °F - 71.1 °F 85% 30.00 in 4.0 mi SSE 13.8 mph - N/A   Haze
9:01 AM 77.0 °F - 71.6 °F 83% 30.00 in 8.0 mi SSE 11.5 mph - N/A   Mostly Cloudy
9:54 AM 79.0 °F - 70.0 °F 74% 30.01 in 10.0 mi SSE 15.0 mph - N/A   Mostly Cloudy
10:54 AM 81.0 °F 84.4 °F 70.0 °F 69% 30.00 in 10.0 mi South 13.8 mph - N/A   Mostly Cloudy
11:54 AM 82.0 °F 85.5 °F 69.1 °F 65% 29.99 in 10.0 mi SSE 15.0 mph - N/A   Mostly Cloudy
12:01 PM 82.4 °F 86.3 °F 69.8 °F 66% 29.98 in 10.0 mi South 16.1 mph - N/A   Mostly Cloudy
12:54 PM 75.9 °F - 71.1 °F 85% 29.98 in 6.0 mi South 9.2 mph - 0.00 in Rain Light Rain
1:54 PM 78.1 °F - 72.0 °F 81% 29.95 in 10.0 mi South 10.4 mph - 0.01 in Rain Light Rain
1:56 PM 78.8 °F - 71.6 °F 78% 29.95 in 10.0 mi SSE 11.5 mph - N/A   Mostly Cloudy
2:54 PM 78.1 °F - 71.1 °F 79% 29.95 in 10.0 mi South 9.2 mph - N/A   Mostly Cloudy
3:54 PM 75.0 °F - 71.1 °F 87% 29.96 in 10.0 mi South 9.2 mph - 0.01 in   Mostly Cloudy
4:54 PM 73.9 °F - 71.1 °F 91% 29.98 in 6.0 mi SE 3.5 mph - 0.02 in Rain Light Rain
5:01 PM 73.4 °F - 71.6 °F 94% 29.97 in 7.0 mi SSE 4.6 mph - 0.00 in Rain Light Rain
5:08 PM 73.4 °F - 71.6 °F 94% 29.98 in 8.0 mi South 3.5 mph - 0.00 in Rain Light Rain
5:54 PM 73.9 °F - 70.0 °F 87% 29.99 in 10.0 mi SSE 3.5 mph - 0.01 in Rain Light Rain
6:54 PM 73.0 °F - 70.0 °F 90% 30.01 in 10.0 mi SSE 4.6 mph - 0.01 in   Overcast
7:01 PM 73.4 °F - 69.8 °F 88% 30.00 in 9.0 mi SE 4.6 mph - N/A   Mostly Cloudy
7:18 PM 73.4 °F - 71.6 °F 94% 30.01 in 7.0 mi ESE 4.6 mph - N/A   Overcast
7:27 PM 73.4 °F - 71.6 °F 94% 30.01 in 7.0 mi SE 4.6 mph - N/A   Overcast
7:54 PM 73.0 °F - 71.1 °F 93% 30.02 in 9.0 mi SSE 3.5 mph - N/A   Overcast
8:54 PM 73.0 °F - 71.1 °F 93% 30.03 in 9.0 mi ESE 3.5 mph - 0.00 in   Overcast
9:54 PM 72.0 °F - 69.1 °F 91% 30.03 in 10.0 mi Calm Calm - N/A   Mostly Cloudy
10:54 PM 72.0 °F - 69.1 °F 91% 30.04 in 10.0 mi Calm Calm - N/A   Clear
11:54 PM 72.0 °F - 69.1 °F 91% 30.03 in 10.0 mi ENE 4.6 mph - N/A   Mostly Cloudy